Location: *
(51.0333°S, 178.4667°E)
Time: 17:00:33
(UTC+00:00)

CZ-2C R/B - Pass Details

Date: 15 November 2019
Orbit: 703 x 909 km, 98.1° (Epoch: 05 December)

Event Time Altitude Azimuth Distance (km) Brightness Sun altitude
Rises 10:11:25 0° 170° (S) 3,524 7.4 -17.2°
Reaches altitude 10° 10:13:54 10° 176° (S) 2,598 6.7 -17.3°
Maximum altitude 10:19:23 44° 245° (WSW) 1,250 4.4 -17.7°
Drops below altitude 10° 10:24:55 10° 315° (NW) 2,608 5.5 -18.0°
Enters shadow 10:26:41 - 320° (NW) 3,262 6.0 -18.1°
